Torna al catalogo

FENGYUN 1C DEB

AttivoPO
NORAD 38795·DEBRIS·🇨🇳 China

Lanciato May 10, 1999 da Taiyuan Satellite Launch Center

Loading…

Prossimi Passaggi (prossime 24 ore)

TLE

AggiornatoSource: Space-Track

Epoca: Sep 11, 2026, 04:31 UTC

1 38795U 99025EUK 26254.18828045  .00000631  00000-0  71715-3 0  9996
2 38795  98.7047 240.8924 0494195 298.5404  56.6821 13.30882081821353

Traccia FENGYUN 1C DEB in tempo reale con AllMySat

Download on the App Store